• In Germany
  • List of Countries
  • For 7 days
  • Water Temperature
  • Satellite Maps
  • Weather Map
  • Weather Widgets
  • user-avatar
    Login

    Hourly Weather Natanja

    Today, 23 October, Tuesday

    Time Temperature Precipitation Wind Pressure Humidity
    00:00 +28°C° 0.1 mm 3 mps 754 mmHg 35%
    01:00 +28°C° 0.1 mm 4 mps 754 mmHg 36%
    02:00 +28°C° 0 mm 3 mps 753 mmHg 33%
    03:00 +28°C° 0 mm 3 mps 753 mmHg 33%
    04:00 +28°C° 0 mm 3 mps 753 mmHg 33%
    05:00 +28°C° 0 mm 4 mps 753 mmHg 33%
    06:00 +29°C° 0 mm 4 mps 753 mmHg 31%
    07:00 +30°C° 0 mm 4 mps 754 mmHg 28%
    08:00 +32°C° 0 mm 4 mps 754 mmHg 26%
    09:00 +33°C° 0 mm 4 mps 754 mmHg 24%
    10:00 +34°C° 0 mm 4 mps 754 mmHg 22%
    11:00 +36°C° 0 mm 4 mps 754 mmHg 21%
    12:00 +36°C° 0 mm 5 mps 753 mmHg 23%
    13:00 +36°C° 0 mm 5 mps 753 mmHg 24%
    14:00 +36°C° 0 mm 5 mps 753 mmHg 26%
    15:00 +34°C° 0 mm 4 mps 753 mmHg 30%
    16:00 +33°C° 0 mm 3 mps 753 mmHg 35%
    17:00 +31°C° 0 mm 2 mps 752 mmHg 39%
    18:00 +30°C° 0 mm 2 mps 753 mmHg 39%
    19:00 +30°C° 0 mm 2 mps 753 mmHg 38%
    20:00 +30°C° 0 mm 2 mps 753 mmHg 37%
    21:00 +29°C° 0 mm 2 mps 753 mmHg 36%
    22:00 +29°C° 0 mm 2 mps 753 mmHg 35%
    23:00 +29°C° 0 mm 1 mps 753 mmHg 33%

    Tomorrow, 24 October, Wednesday

    Time Temperature Precipitation Wind Pressure Humidity
    00:00 +29°C° 0 mm 2 mps 752 mmHg 33%
    01:00 +29°C° 0 mm 2 mps 752 mmHg 32%
    02:00 +28°C° 0 mm 2 mps 752 mmHg 31%
    03:00 +28°C° 0 mm 2 mps 752 mmHg 31%
    04:00 +28°C° 0 mm 2 mps 752 mmHg 31%
    05:00 +28°C° 0 mm 2 mps 751 mmHg 31%
    06:00 +29°C° 0 mm 3 mps 752 mmHg 30%
    07:00 +30°C° 0 mm 3 mps 752 mmHg 28%
    08:00 +32°C° 0 mm 4 mps 752 mmHg 27%
    09:00 +33°C° 0 mm 4 mps 752 mmHg 25%
    10:00 +34°C° 0 mm 5 mps 752 mmHg 23%
    11:00 +36°C° 0 mm 5 mps 752 mmHg 21%
    12:00 +35°C° 0 mm 5 mps 751 mmHg 24%
    13:00 +35°C° 0 mm 5 mps 751 mmHg 26%
    14:00 +35°C° 0 mm 6 mps 750 mmHg 28%
    15:00 +33°C° 0 mm 5 mps 750 mmHg 33%
    16:00 +32°C° 0 mm 4 mps 750 mmHg 38%
    17:00 +30°C° 0 mm 3 mps 750 mmHg 42%
    18:00 +29°C° 0 mm 3 mps 750 mmHg 46%
    19:00 +29°C° 0 mm 2 mps 750 mmHg 49%
    20:00 +28°C° 0 mm 2 mps 751 mmHg 52%
    21:00 +28°C° 0 mm 2 mps 751 mmHg 52%
    22:00 +27°C° 0 mm 1 mps 751 mmHg 51%
    23:00 +27°C° 0 mm 1 mps 751 mmHg 51%

    Day after tomorrow, 25 October, Thursday

    Time Temperature Precipitation Wind Pressure Humidity
    00:00 +27°C° 0.2 mm 2 mps 751 mmHg 50%
    01:00 +26°C° 0.2 mm 4 mps 750 mmHg 50%
    02:00 +26°C° 0.2 mm 5 mps 750 mmHg 49%
    03:00 +25°C° 0.1 mm 5 mps 750 mmHg 55%
    04:00 +25°C° 0.1 mm 5 mps 750 mmHg 61%
    05:00 +23°C° 0.1 mm 5 mps 750 mmHg 66%
    06:00 +23°C° 0.2 mm 4 mps 750 mmHg 65%
    07:00 +25°C° 0.2 mm 4 mps 750 mmHg 64%
    08:00 +25°C° 0.2 mm 3 mps 750 mmHg 62%
    09:00 +27°C° 0 mm 3 mps 750 mmHg 55%
    10:00 +28°C° 0 mm 3 mps 750 mmHg 47%
    11:00 +30°C° 0 mm 3 mps 750 mmHg 40%
    12:00 +30°C° 0 mm 4 mps 750 mmHg 43%
    13:00 +30°C° 0 mm 5 mps 750 mmHg 46%
    14:00 +29°C° 0 mm 6 mps 750 mmHg 49%
    15:00 +28°C° 0.2 mm 6 mps 750 mmHg 55%
    16:00 +27°C° 0.2 mm 7 mps 750 mmHg 61%
    17:00 +26°C° 0.2 mm 7 mps 750 mmHg 68%
    18:00 +26°C° 0.5 mm 7 mps 750 mmHg 67%
    19:00 +24°C° 0.5 mm 7 mps 751 mmHg 67%
    20:00 +24°C° 0.5 mm 7 mps 752 mmHg 66%
    21:00 +24°C° 0.5 mm 7 mps 752 mmHg 67%
    22:00 +23°C° 0.5 mm 7 mps 752 mmHg 68%
    23:00 +23°C° 0.5 mm 7 mps 752 mmHg 68%

    26 October, Friday

    Time Temperature Precipitation Wind Pressure Humidity
    00:00 +23°C° 0.3 mm 8 mps 753 mmHg 68%
    01:00 +23°C° 0.3 mm 8 mps 753 mmHg 68%
    02:00 +23°C° 0.3 mm 8 mps 753 mmHg 68%
    03:00 +22°C° 0 mm 8 mps 753 mmHg 65%
    04:00 +22°C° 0 mm 7 mps 753 mmHg 62%
    05:00 +21°C° 0 mm 6 mps 754 mmHg 60%
    06:00 +22°C° 0 mm 6 mps 754 mmHg 57%
    07:00 +22°C° 0 mm 6 mps 755 mmHg 54%
    08:00 +23°C° 0 mm 5 mps 756 mmHg 50%
    09:00 +23°C° 0 mm 5 mps 756 mmHg 48%
    10:00 +25°C° 0 mm 5 mps 756 mmHg 45%
    11:00 +25°C° 0 mm 5 mps 756 mmHg 43%
    12:00 +25°C° 0 mm 4 mps 756 mmHg 42%
    13:00 +26°C° 0 mm 4 mps 756 mmHg 42%
    14:00 +26°C° 0 mm 4 mps 756 mmHg 41%
    15:00 +25°C° 0 mm 4 mps 757 mmHg 43%
    16:00 +23°C° 0 mm 4 mps 757 mmHg 44%
    17:00 +23°C° 0 mm 4 mps 757 mmHg 46%
    18:00 +22°C° 0 mm 3 mps 758 mmHg 46%
    19:00 +22°C° 0 mm 3 mps 758 mmHg 47%
    20:00 +21°C° 0 mm 3 mps 759 mmHg 47%
    21:00 +21°C° 0 mm 3 mps 759 mmHg 47%
    22:00 +21°C° 0 mm 3 mps 759 mmHg 47%
    23:00 +20°C° 0 mm 3 mps 759 mmHg 47%

    27 October, Saturday

    Time Temperature Precipitation Wind Pressure Humidity
    00:00 +20°C° 0 mm 3 mps 759 mmHg 48%
    01:00 +20°C° 0 mm 3 mps 759 mmHg 49%
    02:00 +19°C° 0 mm 3 mps 759 mmHg 50%
    03:00 +19°C° 0 mm 3 mps 759 mmHg 50%
    04:00 +19°C° 0 mm 3 mps 759 mmHg 51%
    05:00 +19°C° 0 mm 3 mps 759 mmHg 51%
    06:00 +20°C° 0 mm 3 mps 760 mmHg 47%
    07:00 +20°C° 0 mm 3 mps 760 mmHg 43%
    08:00 +21°C° 0 mm 3 mps 760 mmHg 38%
    09:00 +24°C° 0 mm 3 mps 760 mmHg 34%
    10:00 +25°C° 0 mm 3 mps 760 mmHg 31%
    11:00 +26°C° 0 mm 3 mps 760 mmHg 27%
    12:00 +27°C° 0 mm 3 mps 759 mmHg 25%
    13:00 +28°C° 0 mm 3 mps 759 mmHg 23%
    14:00 +28°C° 0 mm 3 mps 758 mmHg 22%
    15:00 +28°C° 0 mm 4 mps 758 mmHg 26%
    16:00 +27°C° 0 mm 4 mps 758 mmHg 29%
    17:00 +26°C° 0 mm 5 mps 758 mmHg 33%
    18:00 +26°C° 0 mm 5 mps 758 mmHg 35%
    19:00 +25°C° 0 mm 5 mps 759 mmHg 37%
    20:00 +25°C° 0 mm 5 mps 759 mmHg 39%
    21:00 +23°C° 0 mm 5 mps 759 mmHg 36%
    22:00 +23°C° 0 mm 4 mps 758 mmHg 33%
    23:00 +23°C° 0 mm 4 mps 758 mmHg 29%

    28 October, Sunday

    Time Temperature Precipitation Wind Pressure Humidity
    00:00 +23°C° 0 mm 5 mps 758 mmHg 29%
    01:00 +23°C° 0 mm 5 mps 758 mmHg 29%
    02:00 +23°C° 0 mm 5 mps 758 mmHg 29%
    03:00 +22°C° 0 mm 5 mps 758 mmHg 28%
    04:00 +22°C° 0 mm 5 mps 758 mmHg 28%
    05:00 +22°C° 0 mm 6 mps 758 mmHg 28%
    06:00 +23°C° 0 mm 6 mps 758 mmHg 26%
    07:00 +24°C° 0 mm 6 mps 758 mmHg 24%
    08:00 +26°C° 0 mm 6 mps 758 mmHg 22%
    09:00 +27°C° 0 mm 6 mps 758 mmHg 21%
    10:00 +28°C° 0 mm 6 mps 758 mmHg 21%
    11:00 +30°C° 0 mm 6 mps 757 mmHg 20%
    12:00 +30°C° 0 mm 6 mps 757 mmHg 20%
    13:00 +32°C° 0 mm 6 mps 756 mmHg 19%
    14:00 +32°C° 0 mm 5 mps 756 mmHg 19%
    15:00 +32°C° 0 mm 5 mps 756 mmHg 20%
    16:00 +30°C° 0 mm 5 mps 755 mmHg 22%
    17:00 +29°C° 0 mm 5 mps 755 mmHg 24%
    18:00 +28°C° 0 mm 5 mps 756 mmHg 24%
    19:00 +28°C° 0 mm 6 mps 756 mmHg 24%
    20:00 +27°C° 0 mm 6 mps 756 mmHg 24%
    21:00 +27°C° 0 mm 6 mps 756 mmHg 23%
    22:00 +27°C° 0 mm 7 mps 756 mmHg 22%
    23:00 +26°C° 0 mm 7 mps 755 mmHg 21%

    29 October, Monday

    Time Temperature Precipitation Wind Pressure Humidity
    00:00 +26°C° 0 mm 8 mps 755 mmHg 20%
    01:00 +24°C° 0 mm 8 mps 755 mmHg 19%
    02:00 +24°C° 0 mm 8 mps 755 mmHg 18%
    03:00 +23°C° 0 mm 8 mps 755 mmHg 18%
    04:00 +23°C° 0 mm 8 mps 755 mmHg 19%
    05:00 +23°C° 0 mm 8 mps 755 mmHg 20%
    06:00 +23°C° 0 mm 8 mps 755 mmHg 20%
    07:00 +24°C° 0 mm 8 mps 755 mmHg 20%
    08:00 +26°C° 0 mm 7 mps 755 mmHg 20%
    09:00 +27°C° 0 mm 7 mps 755 mmHg 21%
    10:00 +28°C° 0 mm 6 mps 755 mmHg 22%
    11:00 +30°C° 0 mm 6 mps 755 mmHg 23%
    12:00 +30°C° 0 mm 5 mps 754 mmHg 23%
    13:00 +32°C° 0 mm 5 mps 754 mmHg 24%
    14:00 +32°C° 0 mm 4 mps 754 mmHg 25%
    15:00 +32°C° 0 mm 4 mps 754 mmHg 27%
    16:00 +30°C° 0 mm 4 mps 754 mmHg 29%
    17:00 +29°C° 0 mm 4 mps 754 mmHg 31%
    18:00 +28°C° 0 mm 4 mps 754 mmHg 32%
    19:00 +28°C° 0 mm 4 mps 754 mmHg 33%
    20:00 +27°C° 0 mm 4 mps 754 mmHg 33%
    21:00 +27°C° 0 mm 4 mps 754 mmHg 33%
    22:00 +27°C° 0 mm 4 mps 754 mmHg 32%
    23:00 +26°C° 0 mm 5 mps 755 mmHg 32%
    Show more